Location: Unspecified
(0.0000°N, 0.0000°E)
Time: 04:36:37
(UTC+00:00)

Envisat - Pass Details

Date: 25 May 2019
Orbit: 764 x 766 km, 98.1° (Epoch: 26 June)

Event Time Altitude Azimuth Distance (km) Brightness Sun altitude
Rises 18:49:44 0° 167° (SSE) 3,231 5.9 -12.3°
Reaches altitude 10° 18:52:02 10° 166° (SSE) 2,303 5.1 -12.8°
Maximum altitude 18:57:07 84° 79° (ENE) 773 2.9 -14.0°
Drops below altitude 10° 19:02:11 10° 350° (N) 2,293 5.9 -15.2°
Sets 19:04:28 0° 350° (N) 3,217 6.7 -15.7°
